Precipitable_Water
0.51 0.53 0.55 0.55 0.56 0.57 0.57 0.56 0.60 0.63 0.63 0.70 0.90 0.96 1.13 1.27 1.36 1.34 1.23 1.31 1.23 1.27 1.26 1.24 1.20 1.18 1.15 1.14 1.12 1.11 1.04 1.06
0.50 0.51 0.53 0.53 0.54 0.54 0.55 0.55 0.57 0.59 0.58 0.51 0.72 0.80 0.89 0.95 1.21 1.33 1.29 1.25 1.22 1.25 1.28 1.31 1.23 1.14 1.13 1.14 1.13 1.06 0.99 1.06
0.47 0.48 0.50 0.53 0.55 0.58 0.56 0.56 0.58 0.62 0.62 0.62 0.69 0.89 0.89 0.91 0.99 1.15 1.29 1.33 1.24 1.23 1.26 1.32 1.26 1.17 1.15 1.16 1.12 1.04 1.02 1.03
0.45 0.45 0.47 0.51 0.53 0.58 0.61 0.65 0.64 0.67 0.71 0.68 0.66 0.86 0.96 0.93 0.92 0.94 1.03 1.32 1.30 1.22 1.27 1.38 1.33 1.25 1.19 1.19 1.14 1.08 0.95 0.97
0.45 0.46 0.47 0.51 0.56 0.62 0.69 0.70 0.71 0.72 0.74 0.72 0.68 0.68 0.82 0.84 0.83 0.89 0.96 1.22 1.30 1.25 1.28 1.33 1.37 1.32 1.25 1.23 1.23 1.15 1.10 0.88
0.45 0.47 0.49 0.54 0.59 0.63 0.70 0.73 0.76 0.78 0.80 0.77 0.73 0.69 0.87 0.94 0.99 0.97 1.03 1.09 1.22 1.23 1.18 1.21 1.54 1.33 1.30 1.29 1.25 1.20 1.17 1.02
0.49 0.50 0.52 0.54 0.60 0.66 0.72 0.77 0.78 0.83 0.86 0.80 0.75 0.75 0.78 0.95 0.97 1.00 1.03 1.04 1.15 1.21 1.28 1.28 1.29 1.15 1.12 1.25 1.27 1.28 1.21 1.06
0.46 0.47 0.49 0.52 0.56 0.65 0.74 0.79 0.76 0.82 0.80 0.80 0.81 0.79 0.78 0.98 1.00 1.11 1.08 1.04 1.08 1.14 1.16 1.15 1.13 1.17 1.15 1.22 1.16 1.31 1.18 1.04
0.43 0.44 0.49 0.51 0.55 0.63 0.76 0.82 0.77 0.84 0.85 0.84 0.87 0.88 0.85 1.05 1.13 1.17 1.17 1.09 1.11 1.20 1.17 1.10 1.11 1.17 1.20 1.21 1.24 1.32 1.19 1.06
0.41 0.42 0.46 0.51 0.55 0.65 0.76 0.84 0.85 0.86 0.85 0.85 0.92 1.07 1.08 1.14 1.14 1.22 1.28 1.22 1.18 1.14 1.17 1.14 1.19 1.33 1.23 1.29 1.31 1.24 1.16 1.04
0.43 0.41 0.44 0.50 0.57 0.68 0.79 0.90 0.85 0.88 0.88 0.91 1.06 1.19 1.14 1.12 1.17 1.19 1.20 1.20 1.14 1.13 1.15 1.20 1.28 1.41 1.46 1.47 1.33 1.23 1.14 1.04
0.42 0.41 0.45 0.51 0.57 0.69 0.78 0.88 0.88 0.89 0.90 0.93 1.01 1.14 1.15 1.14 1.15 1.19 1.27 1.21 1.14 1.13 1.16 1.29 1.34 1.44 1.43 1.40 1.27 1.22 1.04 0.97
0.39 0.37 0.43 0.51 0.55 0.66 0.75 0.83 0.86 0.90 0.91 0.93 0.96 1.03 1.09 1.19 1.21 1.21 1.27 1.26 1.24 1.22 1.25 1.24 1.24 1.36 1.40 1.29 1.26 1.14 0.96 0.99
0.35 0.37 0.42 0.50 0.54 0.62 0.73 0.81 0.84 0.90 0.91 0.96 1.00 1.05 1.09 1.13 1.24 1.32 1.33 1.30 1.24 1.18 1.20 1.09 1.09 1.38 1.34 1.20 1.18 1.09 1.06 1.05
0.36 0.41 0.43 0.50 0.55 0.60 0.68 0.76 0.82 0.86 0.88 0.93 0.98 1.03 1.08 1.15 1.17 1.28 1.32 1.30 1.20 1.20 1.19 1.11 1.17 1.26 1.22 1.19 1.18 1.11 1.06 1.04
0.41 0.43 0.46 0.51 0.54 0.59 0.66 0.73 0.78 0.80 0.83 0.90 0.91 1.00 1.00 1.08 1.11 1.15 1.22 1.25 1.24 1.23 1.17 1.16 1.18 1.19 1.12 1.14 1.14 1.06 1.03 0.99
0.42 0.45 0.49 0.53 0.52 0.57 0.65 0.69 0.74 0.78 0.80 0.82 0.86 0.91 0.95 0.99 1.03 1.06 1.07 1.15 1.16 1.19 1.17 1.15 1.10 1.09 1.08 1.13 1.11 1.01 0.94 0.91
0.44 0.47 0.50 0.52 0.54 0.58 0.62 0.67 0.71 0.74 0.76 0.77 0.82 0.86 0.89 0.93 0.94 0.98 0.99 1.02 1.03 1.04 1.10 1.13 1.08 1.07 1.07 1.07 1.02 0.96 0.90 0.86
0.44 0.48 0.50 0.52 0.55 0.58 0.62 0.65 0.67 0.69 0.72 0.74 0.76 0.81 0.83 0.86 0.88 0.88 0.92 0.95 0.96 1.01 1.01 1.04 1.08 1.01 0.98 0.98 0.95 0.92 0.87 0.86
Wind_Speed
21 22 24 25 27 29 31 34 36 38 40 42 44 45 46 46 45 43 40 39 38 37 36 35 34 33 32 30 28 25 25 24
21 22 24 26 28 31 33 35 37 39 40 41 44 46 48 49 49 48 46 44 41 39 37 36 36 35 33 31 27 25 24 24
20 22 24 26 29 32 35 38 39 40 42 43 44 45 46 48 49 49 48 46 43 40 38 36 37 35 34 32 28 25 24 24
21 23 25 28 31 33 36 38 40 42 43 45 45 45 44 44 46 49 50 47 44 40 37 36 37 36 35 33 30 27 24 25
22 24 26 29 31 34 37 38 39 39 41 43 44 43 42 41 40 43 48 48 44 41 39 38 38 37 36 34 31 29 26 25
22 25 27 29 32 34 36 37 37 38 39 40 42 41 40 38 37 37 41 46 46 43 42 44 38 36 37 35 33 31 28 26
22 25 27 29 32 34 35 35 34 34 34 34 37 40 39 36 35 34 35 40 43 43 41 39 36 36 42 38 35 32 29 27
23 25 26 29 32 34 33 31 29 28 28 30 32 37 39 36 35 33 33 36 39 40 39 38 39 38 39 46 36 32 29 28
22 25 26 29 32 32 31 27 25 26 26 26 27 31 35 34 34 32 32 34 37 38 38 34 34 38 43 37 34 30 28 28
22 24 26 29 30 30 29 23 23 23 21 21 22 26 30 31 32 31 31 31 35 37 37 34 26 23 32 32 30 28 27 27
22 24 27 28 29 28 26 20 20 19 17 15 17 22 26 30 31 31 31 31 32 34 35 35 31 28 32 31 29 28 26 26
22 24 26 27 27 26 22 19 18 17 15 14 16 20 24 26 28 30 30 30 32 34 35 33 30 29 30 29 27 27 26 26
23 25 25 25 25 22 20 18 17 16 14 15 16 17 20 23 26 27 29 30 32 33 35 32 33 30 28 27 26 26 25 25
23 23 23 23 23 21 19 17 16 14 13 12 13 14 15 18 22 24 27 29 31 33 32 31 35 31 28 26 25 24 24 24
21 21 21 21 20 19 18 17 13 13 11 11 11 13 16 14 17 16 23 25 27 30 30 29 29 27 27 26 24 24 24 24
20 19 19 18 17 16 16 15 14 13 11 10 10 13 15 10 12 15 19 22 25 27 26 26 27 26 26 25 24 23 23 23
18 17 16 14 14 13 13 14 12 10 7 9 8 11 15 14 14 16 20 23 24 27 27 28 28 25 26 25 23 22 21 22
15 13 11 10 10 10 11 12 10 8 8 7 6 4 4 9 10 12 15 21 25 27 29 27 28 25 25 23 22 21 20 20
9 8 7 7 7 7 8 9 10 9 8 6 4 4 2 2 4 7 13 15 15 21 23 26 27 24 24 23 22 20 18 18
Wind_Direction
276 278 279 278 277 275 273 269 266 264 262 257 253 251 248 247 247 247 246 244 245 248 250 249 246 245 247 248 249 251 251 251
278 282 283 283 282 279 277 274 271 267 263 259 255 253 251 249 247 245 244 243 244 246 248 247 243 242 243 242 245 247 248 248
282 286 287 288 288 285 281 278 274 270 265 261 258 255 252 249 246 245 242 242 241 243 244 244 238 237 237 238 240 244 248 244
286 290 291 292 292 291 287 283 278 273 268 262 258 254 252 249 246 243 241 238 237 237 240 238 234 233 233 235 238 240 246 245
289 292 295 297 296 296 293 288 282 276 270 263 255 251 248 246 246 243 237 234 233 234 235 236 231 230 231 234 237 240 243 246
293 296 298 299 301 301 298 293 284 278 272 263 252 246 244 244 243 240 234 230 230 233 237 231 220 229 231 234 236 239 243 245
297 300 302 303 306 306 302 297 289 283 272 262 249 244 239 239 237 237 232 229 229 230 233 237 233 234 235 233 235 237 240 245
301 305 306 310 311 312 306 299 292 285 275 263 251 242 234 235 234 234 231 230 226 228 230 233 234 236 232 234 230 234 239 244
303 308 309 312 314 315 310 301 291 290 280 264 251 238 229 231 230 232 231 228 227 226 226 232 236 236 229 215 225 232 240 244
306 310 314 315 317 316 313 299 297 293 282 264 249 232 226 225 225 228 230 227 224 224 222 223 215 212 206 217 225 233 239 242
306 312 315 317 319 317 314 301 299 295 283 263 246 229 226 226 226 227 227 225 221 216 218 218 229 222 221 221 227 234 240 240
305 312 316 317 319 317 313 306 304 295 279 268 250 236 227 226 227 224 223 221 218 217 215 220 223 225 221 224 230 235 239 238
301 307 313 317 319 316 313 309 298 297 281 269 254 239 231 229 225 222 223 221 217 217 215 224 231 223 224 230 230 237 235 233
299 304 308 313 316 316 315 307 302 289 282 275 252 239 232 233 228 224 222 218 218 219 222 229 225 224 225 229 231 232 233 236
296 300 305 309 312 313 315 311 304 302 279 271 259 247 238 237 228 222 218 216 216 214 220 220 217 221 221 223 229 233 235 238
293 297 301 304 308 311 318 318 315 300 294 279 275 252 233 239 231 229 225 220 217 216 215 213 212 217 222 226 231 233 235 239
288 291 294 296 304 311 320 326 324 309 307 307 295 271 244 248 242 245 238 227 222 219 217 216 221 221 223 226 229 232 236 239
281 285 289 290 304 313 325 335 334 334 325 321 326 315 236 239 253 255 234 223 227 226 218 217 214 219 218 223 227 232 234 238
275 277 279 295 307 322 334 346 351 350 348 340 339 352 5 287 260 276 222 219 210 199 218 212 208 214 218 221 224 227 233 237